KUIPER-00133

导读 | 豆包AI

KUIPER-00156是美国亚马逊“柯伊伯计划”中的一颗低轨互联网卫星,于2025年9月25日发射升空。该卫星隶属于亚马逊规划的第一代柯伊伯星座,该星座计划部署超过3200颗卫星,旨在构建卫星互联网系统,挑战SpaceX“星链”的市场主导地位,为全球提供高速互联网接入服务。按照要求,亚马逊需在2026年7月底前完成至少一半卫星部署,KUIPER-00156是该项目推进中的重要一环。

基本信息
目录编号:
65775
目录名称:
KUIPER-00156
国际标识:
2025-217P
轨道中心:
EARTH
卫星名称:
KUIPER-00156
卫星全名:
KUIPER-00133
卫星状态:
在轨 (已飞行159 天)
发射日期:
2025-09-25 UTC
国别 :
美国 (US)
星等 :
--
轨道信息
数据来源 国际轨道数据
星历时间: 2026-03-02T13:45:40+0800
22小时前
查看轨道信息
半长轴: 7007.657km
偏心率: 0.0000838
轨道倾角: 51.903°
近地点辐角 103.522°
升交点赤经 58.566°
平近点角 256.583°
近地点: 628.932km
远地点: 630.108km
周期: 97.301分钟
每日圈数: 14.799382
详细信息
使用方式:
暂无
2D轨道图
3D轨道图
轨道高度分析图
轨道倾角分析图
轨道综合分析图
查看轨道综合分析图